Regional Weather Roundup
Issued by NWS

Home | Current Version | Previous Version | Graphics & Text | Print | Product List | Glossary On
Versions: 1 2 3 4 5 6 7 8 9 10 11 12 13 14 15 16 17 18 19 20 21 22 23 24 25 26 27 28 29 30 31 32 33 34 35 36 37 38 39 40 41 42 43 44 45 46 47 48 49 50
000
ASUS43 KDTX 240901
RWRMI
MICHIGAN HOURLY REGIONAL WEATHER ROUNDUP
NATIONAL WEATHER SERVICE DETROIT/PONTIAC MI
400 AM EST FRI NOV 24 2017

NOTE: "FAIR" INDICATES FEW OR NO CLOUDS BELOW 12,000 FEET WITH NO
SIGNIFICANT WEATHER AND/OR OBSTRUCTION TO VISIBILITY.

MIZ047>049-052>055-059>063-066>070-074>076-081>083-241000-
SOUTHEAST LOWER MICHIGAN

CITY           SKY/WX    TMP DP  RH WIND       PRES   REMARKS
ADRIAN         CLEAR     28  23  81 SW5       29.91F WCI  23
ALMA           CLEAR     32  28  83 S9        29.81F WCI  24
ANN ARBOR      CLEAR     27  23  85 CALM      29.89F
BAD AXE        CLEAR     32  24  72 S14       29.82F WCI  22
CARO           CLEAR     31  25  76 S6        29.82F WCI  26
DETROIT CITY   CLEAR     32  24  72 S5        29.91F WCI  27
DETROIT        PTCLDY    30  25  81 S6        29.92S WCI  24
FLINT          CLEAR     34  23  64 S8        29.85F WCI  27
GROSSE ILE     CLEAR     33  27  79 SW7       29.91F WCI  27
HILLSDALE      CLEAR     32  23  69 SW7       29.86F WCI  26
HOWELL         CLEAR     32  24  73 S6        29.85F WCI  27

CITY           SKY/WX    TMP DP  RH WIND       PRES   REMARKS
JACKSON        CLEAR     34  22  61 S6        29.86F WCI  29
LAMBERTVILLE   CLEAR     33  26  76 S6        29.91F WCI  27
LANSING        CLEAR     33  25  72 S9        29.84F WCI  25
LAPEER         FAIR      32  24  73 S7        29.85F WCI  26
MASON          CLEAR     33  25  72 S3        29.85F
MONROE         CLEAR     31  25  78 S3        29.90F
MT. CLEMENS    CLEAR     30  26  84 S8        29.88F WCI  23
PONTIAC        CLEAR     32  24  72 S6        29.86F WCI  26
PORT HOPE        N/A     34  23  64 VRB5      29.79F WCI  30
PORT HURON     CLEAR     32  23  69 S5        29.89F WCI  27
TRI CITIES     CLEAR     33  26  75 S10       29.81F WCI  25
MIDLAND        FAIR      32  26  77 S5        29.79F WCI  27
TROY           CLEAR     33  25  71 S6        29.90F WCI  28
SAGINAW HB     CLEAR     32  27  80 S10       29.81F WCI  24
$$
MIZ043>046-050>051-056>058-064>065-071>073-077>080-241000-
SOUTHWEST LOWER MICHIGAN

CITY           SKY/WX    TMP DP  RH WIND       PRES   REMARKS
BATTLE CREEK   CLEAR     33  24  69 S8        29.85F WCI  26
BENTON HARBOR  CLEAR     34  25  69 S7        29.85F WCI  28
BIG RAPIDS     CLEAR     28  26  90 SE5       29.76F WCI  23
COLDWATER      CLEAR     33  23  66 SW7       29.86F WCI  27
FREMONT        FAIR      32  30  92 S5        29.78S WCI  27
HOLLAND        CLEAR     33  27  78 S9        29.82F WCI  25
GRAND RAPIDS   CLEAR     32  27  81 S8        29.81F WCI  25
IONIA          FAIR      33  26  76 S9        29.81F WCI  25
KALAMAZOO      CLEAR     32  23  69 S8        29.85F WCI  25
LUDINGTON      CLOUDY    43  32  66 SW18G24   29.74S
MARSHALL       CLEAR     32  23  68 S5        29.85F WCI  28
MOUNT PLEASANT CLEAR     32  25  74 S5        29.78F WCI  27
MUSKEGON       CLEAR     44  32  62 SW13      29.79F
SOUTH HAVEN    CLEAR     34  26  72 S5        29.84S WCI  30
$$
MIZ016>042-241000-
NORTHERN LOWER MICHIGAN

CITY           SKY/WX    TMP DP  RH WIND       PRES   REMARKS
ALPENA         CLOUDY    31  28  89 SE6       29.73F WCI  25
BEAVER ISLAND  MOCLDY    42  35  76 SW10G22   29.63F
BELLAIRE       CLOUDY    37  31  80 SW5       29.70F WCI  33
CADILLAC       CLOUDY    31  28  88 SW8       29.70F WCI  24
CHARLEVOIX     LGT RAIN  37  30  75 SW7       29.70F WCI  32
FRANKFORT      CLOUDY    42  33  68 SW10G20   29.72S
GAYLORD        CLOUDY    33  26  75 SW13      29.68F WCI  24
GRAYLING       CLOUDY    33  27  79 SW7       29.72F WCI  27
HARBOR SPRINGS CLOUDY    37  29  74 SW8       29.68F WCI  30
HOUGHTON LAKE  MOCLDY    30  26  85 S6        29.73F WCI  24
MANISTEE       CLOUDY    34  29  82 CALM      29.73F
OSCODA         CLEAR     31  24  77 S5        29.76F WCI  26
PELLSTON       CLOUDY    37  28  70 S6        29.66F WCI  32
ROGERS CITY    CLOUDY    33  27  78 S6        29.72F WCI  27
TRAVERSE CITY  MOCLDY    38  29  70 S9        29.67F WCI  31
$$
MIZ007>008-015-241000-
EASTERN UPPER MICHIGAN

CITY           SKY/WX    TMP DP  RH WIND       PRES   REMARKS
MACKINAC ISLAN MIX PCPN  37  29  71 S12G17    29.65F WCI  30
NEWBERRY       CLOUDY    38  34  85 S18G24    29.55F WCI  29
S. S. MARIE    LGT RAIN  35  29  78 SE9       29.61F WCI  28
MUNISING         N/A     39  31  72 S17G25    29.46F WCI  30
$$
MIZ004>006-011>014-085-241000-
CENTRAL UPPER MICHIGAN

CITY           SKY/WX    TMP DP  RH WIND       PRES   REMARKS
MANISTIQUE     MOCLDY    41  32  71 S16G24    29.58F
ESCANABA       CLOUDY    41  32  70 S16G22    29.56F
MENOMINEE      CLOUDY    38  27  64 SW13G21   29.61F WCI  30
SAWYER-GWINN   CLOUDY    34  26  73 S18G24    29.47F WCI  23
$$
MIZ001>003-009>011-084-241000-
WESTERN UPPER MICHIGAN

CITY           SKY/WX    TMP DP  RH WIND       PRES   REMARKS
IRON MOUNTAIN  CLOUDY    36  24  62 S8        29.50F WCI  30
HOUGHTON       MOCLDY    39  28  64 SW9       29.34F WCI  33
COPPER HARBOR    N/A     41  29  62 W15G26    29.32F
IRONWOOD       PTCLDY    43  31  62 SW14G22   29.39F
$$

ABBREVIATIONS USED IN REMARKS
   TC - TEMPERATURE IN CELSIUS
  WCI - WIND CHILL INDEX
   HX - HEAT INDEX
  VSB - VISIBILITY




USA.gov is the U.S. government's official web portal to all federal, state and local government web resources and services.